ウィーガート-パンスターズ彗星

351P/Wiegert-PanSTARRS (1997)

English version
Home page
Updated on July 5, 2017

---------------------------------------------------------------------

・ プロフィール

符号 351P/1998 U8

・ 軌道要素

Epoch 1997 Nov. 8.0 TT = JDT 2450760.5
T 1997 Nov.  9.27293 TT                                 MPCW
q   2.9400116            (2000.0)            P               Q
n   0.10846039     Peri.  357.82250     +0.29997282     +0.93307495
a   4.3546702      Node   289.58523     -0.87201544     +0.18385551
e   0.3248601      Incl.   12.16045     -0.38678854     +0.30914121
P   9.09
From 47 observations 1998 Oct. 18-2016 Aug. 30, mean residual 0".5.

・ 光度変化

        m1 = 12.5 + 5 logΔ + 10.0 log r

---------------------------------------------------------------------

軌道要素はM.P.E.C. 2017-K62に掲載されたものです。
光度グラフはComet for Windowsで作成したものです。

---------------------------------------------------------------------

Copyright(C) Seiichi Yoshida (comet@aerith.net). All rights reserved.